EW3608 Weather Reports


time (UTC)temp
C
wind
direction
speed
KPH
gust
KPH
rain 1hr
cm
rain 24hr
cm
rain mn
cm
humidity
%
barometer
mb
20260504215507 16 324 1.6 19.3 0.00 0.00 0.00 39 1008.3
20260504215009 16 9 9.7 19.3 0.00 0.00 0.00 40 1008.4
20260504214524 16 52 3.2 20.9 0.00 0.00 0.00 39 1008.3
20260504214010 16 30 8.0 27.4 0.00 0.00 0.00 40 1008.3
20260504213511 16 11 9.7 27.4 0.00 0.00 0.00 39 1008.3
20260504213010 17 22 9.7 25.7 0.00 0.00 0.00 38 1008.3
20260504212509 17 352 6.4 29.0 0.00 0.00 0.00 36 1008.5
20260504212006 17 34 12.9 29.0 0.00 0.00 0.00 35 1008.6
20260504211516 17 339 6.4 24.1 0.00 0.00 0.00 35 1008.4
20260504211007 17 15 8.0 27.4 0.00 0.00 0.00 34 1008.5
20260504210511 18 34 14.5 27.4 0.00 0.00 0.00 34 1008.4
20260504210027 18 50 11.3 32.2 0.00 0.00 0.00 33 1008.2
20260504205511 18 76 9.7 32.2 0.00 0.00 0.00 31 1008.5
20260504205007 20 5 11.3 29.0 0.00 0.00 0.00 27 1008.5
20260504204511 22 322 4.8 12.9 0.00 0.00 0.00 24 1008.5
20260504204007 21 180 3.2 17.7 0.00 0.00 0.00 26 1007.7
20260504203507 20 139 6.4 17.7 0.00 0.00 0.00 27 1007.6
20260504203031 20 142 6.4 14.5 0.00 0.00 0.00 29 1007.7
20260504202508 20 105 6.4 14.5 0.00 0.00 0.00 29 1007.8
20260504202013 19 150 6.4 19.3 0.00 0.00 0.00 29 1007.8
20260504201528 19 207 4.8 19.3 0.00 0.00 0.00 29 1007.9
20260504201005 20 178 6.4 19.3 0.00 0.00 0.00 29 1008.0
20260504200509 20 150 6.4 19.3 0.00 0.00 0.00 26 1008.0
20260504200018 21 108 4.8 19.3 0.00 0.00 0.00 25 1008.1
20260504195507 21 121 3.2 19.3 0.00 0.00 0.00 23 1008.0
20260504195011 21 282 3.2 17.7 0.00 0.00 0.00 21 1007.8
20260504194539 21 209 3.2 20.9 0.00 0.00 0.00 21 1007.7
20260504194008 22 239 9.7 20.9 0.00 0.00 0.00 20 1007.7
20260504193510 22 238 4.8 16.1 0.00 0.00 0.00 20 1007.7
20260504193016 22 253 8.0 16.1 0.00 0.00 0.00 21 1007.7
20260504192507 22 163 3.2 12.9 0.00 0.00 0.00 22 1007.5
20260504192010 22 275 3.2 12.9 0.00 0.00 0.00 22 1007.5
20260504191519 22 303 4.8 11.3 0.00 0.00 0.00 21 1007.5
20260504191009 22 209 4.8 14.5 0.00 0.00 0.00 21 1007.3
20260504190511 22 203 4.8 14.5 0.00 0.00 0.00 21 1007.4
20260504190029 22 319 4.8 16.1 0.00 0.00 0.00 22 1007.5
20260504185513 21 275 4.8 16.1 0.00 0.00 0.00 22 1007.5
20260504185004 21 250 4.8 17.7 0.00 0.00 0.00 22 1007.5
20260504184518 21 192 3.2 17.7 0.00 0.00 0.00 22 1007.6
20260504184009 21 271 4.8 11.3 0.00 0.00 0.00 21 1007.8
20260504183513 21 275 3.2 20.9 0.00 0.00 0.00 22 1007.9
20260504183025 21 235 4.8 20.9 0.00 0.00 0.00 23 1007.9
20260504182510 21 253 3.2 22.5 0.00 0.00 0.00 22 1008.0
20260504182012 21 250 4.8 22.5 0.00 0.00 0.00 23 1008.2
20260504181525 21 347 6.4 19.3 0.00 0.00 0.00 23 1008.2
20260504181010 21 342 3.2 16.1 0.00 0.00 0.00 24 1008.4
20260504180509 21 294 8.0 19.3 0.00 0.00 0.00 24 1008.6
20260504180021 21 298 4.8 19.3 0.00 0.00 0.00 24 1008.5
20260504175507 20 291 3.2 24.1 0.00 0.00 0.00 25 1008.7
20260504175011 20 215 9.7 24.1 0.00 0.00 0.00 25 1008.7
20260504174526 21 342 8.0 19.3 0.00 0.00 0.00 24 1008.8
20260504174008 21 289 4.8 22.5 0.00 0.00 0.00 25 1008.9
20260504173511 20 277 6.4 22.5 0.00 0.00 0.00 25 1008.9
20260504173018 20 321 8.0 20.9 0.00 0.00 0.00 25 1008.9
20260504172508 20 273 8.0 20.9 0.00 0.00 0.00 25 1009.1
20260504172010 20 309 3.2 17.7 0.00 0.00 0.00 27 1009.2
20260504171521 20 288 4.8 17.7 0.00 0.00 0.00 26 1009.3
20260504171014 20 292 4.8 14.5 0.00 0.00 0.00 27 1009.3
20260504170512 19 352 4.8 14.5 0.00 0.00 0.00 27 1009.4
20260504151002 16 221 0.0 9.7 0.00 0.00 0.00 30 1009.8
20260504150502 16 235 1.6 9.7 0.00 0.00 0.00 29 1009.8
20260504141004 10 281 1.6 6.4 0.00 0.00 0.00 45 1009.8
20260504140502 10 257 1.6 6.4 0.00 0.00 0.00 50 1009.8
20260504130505 6 165 0.0 3.2 0.00 0.00 0.00 57 1009.6
20260504110505 5 179 0.0 3.2 0.00 0.00 0.00 60 1009.5
20260504100502 5 171 0.0 3.2 0.00 0.00 0.00 58 1009.8
20260504082008 7 187 0.0 3.2 0.00 0.00 0.00 48 1010.7
20260504081523 7 192 1.6 3.2 0.00 0.00 0.00 47 1010.7
20260504081006 7 212 0.0 3.2 0.00 0.00 0.00 47 1010.8
20260504080503 7 229 0.0 3.2 0.00 0.00 0.00 45 1010.9
20260504050509 16 296 1.6 11.3 0.00 0.00 0.00 28 1011.0
20260504050024 16 223 3.2 11.3 0.00 0.00 0.00 27 1011.0
20260504045510 16 247 3.2 11.3 0.00 0.00 0.00 27 1011.0
20260504045011 16 273 1.6 14.5 0.00 0.00 0.00 27 1011.1
20260504044508 16 257 3.2 14.5 0.00 0.00 0.00 27 1011.1
20260504044003 16 215 4.8 12.9 0.00 0.00 0.00 27 1011.2
20260504043504 16 232 3.2 14.5 0.00 0.00 0.00 27 1011.2
20260504043019 16 82 3.2 14.5 0.00 0.00 0.00 27 1011.2
20260504042508 16 223 4.8 14.5 0.00 0.00 0.00 27 1011.2
20260504042011 16 269 3.2 16.1 0.00 0.00 0.00 27 1011.3
20260504041525 16 277 3.2 16.1 0.00 0.00 0.00 27 1011.3
20260504041008 16 274 8.0 16.1 0.00 0.00 0.00 27 1011.4
20260504040504 16 267 6.4 16.1 0.00 0.00 0.00 27 1011.4
20260504040012 17 258 3.2 14.5 0.00 0.00 0.00 27 1011.4
20260504035507 17 321 3.2 14.5 0.00 0.00 0.00 27 1011.5
20260504035008 17 307 4.8 12.9 0.00 0.00 0.00 27 1011.5
20260504034535 17 265 3.2 12.9 0.00 0.00 0.00 27 1011.6
20260504034008 17 234 4.8 12.9 0.00 0.00 0.00 27 1011.5
20260504033512 17 288 3.2 11.3 0.00 0.00 0.00 27 1011.5
20260504033030 17 237 3.2 11.3 0.00 0.00 0.00 27 1011.6
20260504032503 17 214 1.6 11.3 0.00 0.00 0.00 27 1011.5
20260504032004 17 241 1.6 9.7 0.00 0.00 0.00 27 1011.6
20260504031516 17 221 1.6 9.7 0.00 0.00 0.00 27 1011.6
20260504031007 17 214 0.0 6.4 0.00 0.00 0.00 26 1011.6
20260504030510 17 223 1.6 6.4 0.00 0.00 0.00 26 1011.5
20260504030036 17 219 1.6 8.0 0.00 0.00 0.00 25 1011.5
20260504025509 17 216 0.0 9.7 0.00 0.00 0.00 25 1011.4
20260504025011 17 246 3.2 9.7 0.00 0.00 0.00 25 1011.4
20260504024510 18 223 1.6 4.8 0.00 0.00 0.00 25 1011.4
20260504024008 18 252 1.6 3.2 0.00 0.00 0.00 24 1011.3
20260504023507 18 183 0.0 3.2 0.00 0.00 0.00 24 1011.2
20260504023020 18 194 1.6 3.2 0.00 0.00 0.00 1011.2
20260504022511 18 240 0.0 3.2 0.00 0.00 0.00 1011.2
20260504022011 18 40 0.0 3.2 0.00 0.00 0.00 22 1011.1
20260504021525 18 326 0.0 3.2 0.00 0.00 0.00 22 1011.1
20260504021009 19 213 0.0 4.8 0.00 0.00 0.00 22 1011.1
20260504020505 19 9 0.0 4.8 0.00 0.00 0.00 22 1011.1
20260504020011 19 350 1.6 4.8 0.00 0.00 0.00 22 1011.0
20260504015505 19 270 0.0 4.8 0.00 0.00 0.00 22 1011.0
20260504015010 19 294 1.6 11.3 0.00 0.00 0.00 22 1010.9
20260504014525 19 246 1.6 12.9 0.00 0.00 0.00 22 1010.8
20260504014009 19 211 3.2 12.9 0.00 0.00 0.00 21 1010.7
20260504013507 19 280 1.6 9.7 0.00 0.00 0.00 22 1010.7
20260504013028 20 236 1.6 9.7 0.00 0.00 0.00 22 1010.7
20260504012506 20 248 3.2 11.3 0.00 0.00 0.00 22 1010.7
20260504012006 20 209 3.2 12.9 0.00 0.00 0.00 22 1010.7
20260504011518 20 261 3.2 12.9 0.00 0.00 0.00 22 1010.8
20260504011007 20 283 4.8 12.9 0.00 0.00 0.00 22 1010.8
20260504010508 20 212 1.6 17.7 0.00 0.00 0.00 22 1010.8
20260504010024 20 232 3.2 17.7 0.00 0.00 0.00 21 1010.8
20260504005510 20 287 4.8 16.1 0.00 0.00 0.00 21 1010.9
20260504005013 20 326 3.2 14.5 0.00 0.00 0.00 22 1011.1
20260504004511 20 283 4.8 14.5 0.00 0.00 0.00 22 1011.2
20260504004006 20 226 3.2 12.9 0.00 0.00 0.00 21 1011.2
20260504003511 20 275 3.2 4.8 0.00 0.00 0.00 22 1011.4
20260504003023 20 271 1.6 4.8 0.00 0.00 0.00 22 1011.5
20260504002510 20 278 1.6 4.8 0.00 0.00 0.00 22 1011.5
20260504002012 20 352 0.0 6.4 0.00 0.00 0.00 22 1011.6
20260504001508 20 337 1.6 8.0 0.00 0.00 0.00 22 1011.7
20260504001003 20 333 3.2 8.0 0.00 0.00 0.00 22 1011.6
20260504000510 20 352 1.6 4.8 0.00 0.00 0.00 22 1011.7
20260504000016 20 337 1.6 9.7 0.00 0.00 0.00 22 1011.6
20260503235507 20 34 4.8 9.7 0.00 0.00 0.00 22 1011.6
20260503235007 21 333 3.2 8.0 0.00 0.00 0.00 22 1011.7
20260503234528 21 168 1.6 3.2 0.00 0.00 0.00 21 1011.9
20260503234007 20 267 1.6 8.0 0.00 0.00 0.00 22 1011.9
20260503233503 20 226 1.6 9.7 0.00 0.00 0.00 22 1011.9
20260503233011 21 225 1.6 9.7 0.00 0.00 0.00 22 1012.0
20260503232506 21 273 1.6 6.4 0.00 0.00 0.00 21 1011.9
20260503232007 21 333 3.2 8.0 0.00 0.00 0.00 21 1011.5
20260503231522 21 336 1.6 8.0 0.00 0.00 0.00 21 1011.4
20260503231009 21 167 0.0 6.4 0.00 0.00 0.00 22 1011.5
20260503230510 21 190 1.6 11.3 0.00 0.00 0.00 22 1011.5
20260503230028 21 109 3.2 19.3 0.00 0.00 0.00 22 1011.5
20260503225503 21 172 3.2 20.9 0.00 0.00 0.00 22 1011.7
20260503225007 20 234 8.0 29.0 0.00 0.00 0.00 24 1011.7
20260503224515 20 89 11.3 29.0 0.00 0.00 0.00 22 1011.8
20260503224007 21 86 4.8 20.9 0.00 0.00 0.00 22 1011.9
20260503223509 21 255 8.0 24.1 0.00 0.00 0.00 20 1011.9
20260503223027 21 343 11.3 24.1 0.00 0.00 0.00 20 1011.6
20260503222507 21 327 4.8 17.7 0.00 0.00 0.00 19 1011.6
20260503222011 21 301 3.2 9.7 0.00 0.00 0.00 18 1011.7
20260503221507 21 339 1.6 16.1 0.00 0.00 0.00 18 1011.6
20260503221006 21 349 3.2 16.1 0.00 0.00 0.00 18 1011.7
20260503220507 21 5 3.2 14.5 0.00 0.00 0.00 18 1011.7
20260503220018 21 314 4.8 14.5 0.00 0.00 0.00 17 1011.7